Location: Berlin
(38.3226°N, 75.2177°W)
Time: 23:21:05
(UTC+00:00)

SJ-6F - Pass Details

Date: 26 October 2020
Orbit: 571 x 593 km, 97.8° (Epoch: 25 November)

Event Time Altitude Azimuth Distance (km) Brightness Sun altitude
Rises 09:30:30 0° 10° (N) 2,791 8.1 -22.3°
Reaches altitude 10° 09:32:39 10° 9° (N) 1,891 7.2 -21.9°
Maximum altitude 09:36:44 78° 284° (WNW) 595 4.2 -21.1°
Enters shadow 09:39:06 25° 201° (SSW) 1,197 5.8 -20.6°
